User: anonymous
Location: Berkshire School Observatory
(42.1170°N, 73.4100°W)
Time: 07:24:54
(UTC-04:00)
Language:

IGS 1B - Orbit

View from above orbital plane
View from above orbital plane
View from above satellite
View from above satellite

Ground track
Ground track

The orbit data is extracted from the following two-line orbital elements,

1 27699U 03009B   12197.87340052 0.00250000  00000-0  61949-3 0    06
2 27699  97.0826 262.7258 0001005 125.4008 234.5990 15.95888912    03
Epoch (UTC): 15 July 2012 20:57:41
Eccentricity: 0.0001005
inclination: 97.0826°
perigee height: 285 km
apogee height: 286 km
right ascension of ascending node: 262.7258°
argument of perigee: 125.4008°
revolutions per day: 15.95888912
mean anomaly at epoch: 234.5990°
orbit number at epoch: 0

The dashed part of the orbit path shows where the satellite is in the earth's shadow,  

DLR